Location: Unspecified
(38.7273°N, 77.0677°W)
Time: 06:46:25
(UTC-04:00)

CAS-4B - Pass Details

Date: 27 September 2021
Orbit: 529 x 541 km, 43.0° (Epoch: 19 October)

Event Time Altitude Azimuth Distance (km) Brightness Sun altitude
Exits shadow 05:46:52 21° 300° (WNW) 1,232 ? -15.2°
Maximum altitude 05:49:16 45° 4° (N) 726 ? -14.7°
Drops below altitude 10° 05:53:10 10° 78° (ENE) 1,769 ? -14.0°
Sets 05:55:28 0° 85° (E) 2,659 ? -13.5°
